Time,TemperatureF,DewpointF,PressureIn,WindDirection,WindDirectionDegrees,WindSpeedMPH,WindSpeedGustMPH,Humidity,HourlyPrecipIn,Conditions,Clouds,dailyrainin,SoftwareType,DateUTC
2013-10-27 00:01:00,73.0,72.0,28.65,West,270,0.0,6.0,96,0.00,,,0.00,Rainwise IP-100,2013-10-27 04:01:00,
2013-10-27 00:02:00,73.0,72.0,28.65,West,270,0.0,6.0,96,0.00,,,0.00,Rainwise IP-100,2013-10-27 04:02:00,
2013-10-27 00:04:00,73.0,72.0,28.65,West,270,0.0,6.0,96,0.00,,,0.00,Rainwise IP-100,2013-10-27 04:04:00,
2013-10-27 00:05:00,73.0,72.0,28.65,West,270,0.0,2.0,96,0.00,,,0.00,Rainwise IP-100,2013-10-27 04:05:00,
2013-10-27 00:06:00,73.0,72.0,28.65,West,270,3.0,3.0,96,0.00,,,0.00,Rainwise IP-100,2013-10-27 04:06:00,
2013-10-27 00:11:00,73.0,72.0,28.65,West,270,0.0,4.0,96,0.00,,,0.00,Rainwise IP-100,2013-10-27 04:11:00,
2013-10-27 00:16:00,73.0,72.0,28.65,West,270,0.0,3.0,97,0.00,,,0.00,Rainwise IP-100,2013-10-27 04:16:00,
2013-10-27 00:21:00,73.0,72.0,28.65,ENE,67,0.0,6.0,96,0.00,,,0.00,Rainwise IP-100,2013-10-27 04:21:00,
2013-10-27 00:26:00,73.0,72.0,28.65,ENE,67,1.0,6.0,96,0.00,,,0.00,Rainwise IP-100,2013-10-27 04:26:00,
2013-10-27 00:31:00,73.0,71.0,28.64,ENE,67,3.0,7.0,95,0.00,,,0.00,Rainwise IP-100,2013-10-27 04:31:00,
2013-10-27 00:36:00,73.0,71.0,28.64,NNE,22,2.0,6.0,95,0.00,,,0.00,Rainwise IP-100,2013-10-27 04:36:00,
2013-10-27 00:41:00,73.0,71.0,28.64,NNE,22,1.0,4.0,95,0.00,,,0.00,Rainwise IP-100,2013-10-27 04:41:00,
2013-10-27 00:47:00,73.0,71.0,28.64,NE,45,3.0,7.0,94,0.00,,,0.00,Rainwise IP-100,2013-10-27 04:47:00,
2013-10-27 00:52:00,73.0,71.0,28.64,North,360,0.0,4.0,94,0.00,,,0.00,Rainwise IP-100,2013-10-27 04:52:00,
2013-10-27 00:57:00,73.0,71.0,28.64,NNE,22,0.0,6.0,95,0.00,,,0.00,Rainwise IP-100,2013-10-27 04:57:00,
2013-10-27 01:02:00,73.0,72.0,28.63,SSW,202,0.0,2.0,97,0.00,,,0.00,Rainwise IP-100,2013-10-27 05:02:00,
2013-10-27 01:07:00,73.0,72.0,28.63,SSW,202,0.0,0.0,97,0.00,,,0.00,Rainwise IP-100,2013-10-27 05:07:00,
2013-10-27 01:12:00,72.0,71.0,28.63,SSW,202,0.0,0.0,97,0.00,,,0.00,Rainwise IP-100,2013-10-27 05:12:00,
2013-10-27 01:17:00,72.0,71.0,28.63,SSW,202,0.0,0.0,97,0.00,,,0.00,Rainwise IP-100,2013-10-27 05:17:00,
2013-10-27 01:22:00,72.0,71.0,28.63,SSW,202,0.0,0.0,97,0.00,,,0.00,Rainwise IP-100,2013-10-27 05:22:00,
2013-10-27 01:27:00,72.0,71.0,28.63,SSW,202,0.0,2.0,98,0.00,,,0.00,Rainwise IP-100,2013-10-27 05:27:00,
2013-10-27 01:32:00,72.0,71.0,28.63,SSW,202,0.0,0.0,98,0.00,,,0.00,Rainwise IP-100,2013-10-27 05:32:00,
2013-10-27 01:37:00,71.0,70.0,28.63,North,360,3.0,0.0,99,0.00,,,0.00,Rainwise IP-100,2013-10-27 05:37:00,
2013-10-27 01:42:00,71.0,70.0,28.63,SE,135,0.0,3.0,99,0.00,,,0.00,Rainwise IP-100,2013-10-27 05:42:00,
2013-10-27 01:48:00,71.0,70.0,28.63,SE,135,0.0,0.0,99,0.00,,,0.00,Rainwise IP-100,2013-10-27 05:48:00,
2013-10-27 01:53:00,71.0,70.0,28.63,SE,135,0.0,0.0,99,0.00,,,0.00,Rainwise IP-100,2013-10-27 05:53:00,
2013-10-27 01:58:00,71.0,70.0,28.63,SE,135,0.0,0.0,99,0.00,,,0.00,Rainwise IP-100,2013-10-27 05:58:00,
2013-10-27 02:03:00,71.0,70.0,28.62,SE,135,0.0,0.0,99,0.00,,,0.00,Rainwise IP-100,2013-10-27 06:03:00,
2013-10-27 02:08:00,71.0,70.0,28.62,South,180,0.0,0.0,99,0.00,,,0.00,Rainwise IP-100,2013-10-27 06:08:00,
2013-10-27 02:13:00,71.0,70.0,28.62,South,180,0.0,1.0,99,0.00,,,0.00,Rainwise IP-100,2013-10-27 06:13:00,
2013-10-27 02:18:00,71.0,70.0,28.62,SW,225,0.0,3.0,99,0.00,,,0.00,Rainwise IP-100,2013-10-27 06:18:00,
2013-10-27 02:23:00,70.0,69.0,28.62,SW,225,0.0,2.0,99,0.00,,,0.00,Rainwise IP-100,2013-10-27 06:23:00,
2013-10-27 02:28:00,70.0,69.0,28.62,SW,225,2.0,3.0,99,0.00,,,0.00,Rainwise IP-100,2013-10-27 06:28:00,
2013-10-27 02:33:00,70.0,69.0,28.62,SW,225,0.0,3.0,99,0.00,,,0.00,Rainwise IP-100,2013-10-27 06:33:00,
2013-10-27 02:38:00,70.0,69.0,28.62,SW,225,0.0,1.0,99,0.00,,,0.00,Rainwise IP-100,2013-10-27 06:38:00,
2013-10-27 02:43:00,70.0,69.0,28.61,SW,225,0.0,0.0,99,0.00,,,0.00,Rainwise IP-100,2013-10-27 06:43:00,
2013-10-27 02:49:00,70.0,69.0,28.61,SW,225,0.0,1.0,99,0.00,,,0.00,Rainwise IP-100,2013-10-27 06:49:00,
2013-10-27 02:54:00,70.0,69.0,28.61,SW,225,0.0,0.0,99,0.00,,,0.00,Rainwise IP-100,2013-10-27 06:54:00,
2013-10-27 02:59:00,70.0,69.0,28.61,SW,225,1.0,0.0,99,0.00,,,0.00,Rainwise IP-100,2013-10-27 06:59:00,
2013-10-27 03:04:00,70.0,69.0,28.61,SW,225,1.0,1.0,99,0.00,,,0.00,Rainwise IP-100,2013-10-27 07:04:00,
2013-10-27 03:09:00,70.0,69.0,28.61,SW,225,0.0,3.0,99,0.00,,,0.00,Rainwise IP-100,2013-10-27 07:09:00,
2013-10-27 03:14:00,70.0,69.0,28.61,SW,225,0.0,1.0,99,0.00,,,0.00,Rainwise IP-100,2013-10-27 07:14:00,
2013-10-27 03:19:00,70.0,69.0,28.61,SW,225,0.0,0.0,99,0.00,,,0.00,Rainwise IP-100,2013-10-27 07:19:00,
2013-10-27 03:24:00,70.0,69.0,28.61,WSW,247,0.0,5.0,99,0.00,,,0.00,Rainwise IP-100,2013-10-27 07:24:00,
2013-10-27 03:29:00,70.0,69.0,28.61,WSW,247,3.0,5.0,99,0.00,,,0.00,Rainwise IP-100,2013-10-27 07:29:00,
2013-10-27 03:34:00,70.0,69.0,28.61,WSW,247,0.0,4.0,99,0.00,,,0.00,Rainwise IP-100,2013-10-27 07:34:00,
2013-10-27 03:39:00,70.0,69.0,28.61,WSW,247,0.0,3.0,99,0.00,,,0.00,Rainwise IP-100,2013-10-27 07:39:00,
2013-10-27 03:44:00,70.0,69.0,28.61,WSW,247,0.0,2.0,99,0.00,,,0.00,Rainwise IP-100,2013-10-27 07:44:00,
2013-10-27 03:50:00,70.0,69.0,28.61,WSW,247,3.0,4.0,99,0.00,,,0.00,Rainwise IP-100,2013-10-27 07:50:00,
2013-10-27 03:55:00,70.0,69.0,28.61,West,270,0.0,5.0,99,0.00,,,0.00,Rainwise IP-100,2013-10-27 07:55:00,
2013-10-27 04:00:00,70.0,69.0,28.61,West,270,0.0,0.0,99,0.00,,,0.00,Rainwise IP-100,2013-10-27 08:00:00,
2013-10-27 04:05:00,70.0,69.0,28.60,West,270,0.0,0.0,99,0.00,,,0.00,Rainwise IP-100,2013-10-27 08:05:00,
2013-10-27 04:10:00,70.0,69.0,28.60,West,270,0.0,0.0,99,0.00,,,0.00,Rainwise IP-100,2013-10-27 08:10:00,
2013-10-27 04:16:00,70.0,69.0,28.61,West,270,1.0,0.0,99,0.00,,,0.00,Rainwise IP-100,2013-10-27 08:16:00,
2013-10-27 04:21:00,70.0,69.0,28.61,West,270,0.0,2.0,99,0.00,,,0.00,Rainwise IP-100,2013-10-27 08:21:00,
2013-10-27 04:26:00,70.0,69.0,28.61,West,270,0.0,2.0,99,0.00,,,0.00,Rainwise IP-100,2013-10-27 08:26:00,
2013-10-27 04:31:00,70.0,69.0,28.61,West,270,0.0,2.0,99,0.00,,,0.00,Rainwise IP-100,2013-10-27 08:31:00,
2013-10-27 04:36:00,69.0,68.0,28.61,West,270,0.0,0.0,99,0.00,,,0.00,Rainwise IP-100,2013-10-27 08:36:00,
2013-10-27 04:41:00,69.0,68.0,28.61,West,270,0.0,2.0,99,0.00,,,0.00,Rainwise IP-100,2013-10-27 08:41:00,
2013-10-27 04:46:00,70.0,69.0,28.61,West,270,0.0,5.0,99,0.00,,,0.00,Rainwise IP-100,2013-10-27 08:46:00,
2013-10-27 04:52:00,69.0,68.0,28.61,West,270,0.0,1.0,99,0.00,,,0.00,Rainwise IP-100,2013-10-27 08:52:00,
2013-10-27 04:57:00,70.0,69.0,28.61,West,270,0.0,2.0,99,0.00,,,0.00,Rainwise IP-100,2013-10-27 08:57:00,
2013-10-27 05:02:00,70.0,69.0,28.61,West,270,1.0,1.0,99,0.00,,,0.00,Rainwise IP-100,2013-10-27 09:02:00,
2013-10-27 05:07:00,70.0,69.0,28.61,West,270,0.0,2.0,99,0.00,,,0.00,Rainwise IP-100,2013-10-27 09:07:00,
2013-10-27 05:12:00,70.0,69.0,28.61,West,270,1.0,2.0,99,0.00,,,0.00,Rainwise IP-100,2013-10-27 09:12:00,
2013-10-27 05:17:00,70.0,69.0,28.61,West,270,2.0,2.0,99,0.00,,,0.00,Rainwise IP-100,2013-10-27 09:17:00,
2013-10-27 05:22:00,69.0,68.0,28.61,West,270,2.0,3.0,99,0.00,,,0.00,Rainwise IP-100,2013-10-27 09:22:00,
2013-10-27 05:27:00,69.0,68.0,28.61,West,270,3.0,3.0,99,0.00,,,0.00,Rainwise IP-100,2013-10-27 09:27:00,
2013-10-27 05:32:00,70.0,69.0,28.61,West,270,3.0,4.0,99,0.00,,,0.00,Rainwise IP-100,2013-10-27 09:32:00,
2013-10-27 05:37:00,70.0,69.0,28.61,West,270,0.0,3.0,99,0.00,,,0.00,Rainwise IP-100,2013-10-27 09:37:00,
2013-10-27 05:42:00,69.0,68.0,28.61,West,270,0.0,2.0,99,0.00,,,0.00,Rainwise IP-100,2013-10-27 09:42:00,
2013-10-27 05:47:00,70.0,69.0,28.61,West,270,1.0,0.0,99,0.00,,,0.00,Rainwise IP-100,2013-10-27 09:47:00,
2013-10-27 05:53:00,69.0,68.0,28.61,West,270,0.0,2.0,99,0.00,,,0.00,Rainwise IP-100,2013-10-27 09:53:00,
2013-10-27 05:58:00,69.0,68.0,28.61,West,270,0.0,0.0,99,0.00,,,0.00,Rainwise IP-100,2013-10-27 09:58:00,
2013-10-27 06:03:00,69.0,68.0,28.62,West,270,1.0,4.0,99,0.00,,,0.00,Rainwise IP-100,2013-10-27 10:03:00,
2013-10-27 06:08:00,70.0,69.0,28.62,West,270,2.0,3.0,99,0.00,,,0.00,Rainwise IP-100,2013-10-27 10:08:00,
2013-10-27 06:13:00,70.0,69.0,28.62,West,270,0.0,3.0,99,0.00,,,0.00,Rainwise IP-100,2013-10-27 10:13:00,
2013-10-27 06:18:00,70.0,69.0,28.62,West,270,2.0,3.0,99,0.00,,,0.00,Rainwise IP-100,2013-10-27 10:18:00,
2013-10-27 06:23:00,70.0,69.0,28.62,West,270,0.0,3.0,99,0.00,,,0.00,Rainwise IP-100,2013-10-27 10:23:00,
2013-10-27 06:28:00,70.0,69.0,28.62,West,270,2.0,2.0,99,0.00,,,0.00,Rainwise IP-100,2013-10-27 10:28:00,
2013-10-27 06:33:00,70.0,69.0,28.62,West,270,0.0,2.0,99,0.00,,,0.00,Rainwise IP-100,2013-10-27 10:33:00,
2013-10-27 06:38:00,70.0,69.0,28.62,West,270,2.0,2.0,99,0.00,,,0.00,Rainwise IP-100,2013-10-27 10:38:00,
2013-10-27 06:43:00,70.0,69.0,28.63,West,270,0.0,2.0,99,0.00,,,0.00,Rainwise IP-100,2013-10-27 10:43:00,
2013-10-27 06:48:00,71.0,70.0,28.63,NE,45,4.0,7.0,99,0.00,,,0.00,Rainwise IP-100,2013-10-27 10:48:00,
2013-10-27 06:54:00,71.0,70.0,28.62,NE,45,0.0,6.0,99,0.00,,,0.00,Rainwise IP-100,2013-10-27 10:54:00,
2013-10-27 06:59:00,71.0,70.0,28.62,NE,45,0.0,1.0,99,0.00,,,0.00,Rainwise IP-100,2013-10-27 10:59:00,
2013-10-27 07:04:00,71.0,70.0,28.63,NE,45,0.0,0.0,99,0.00,,,0.00,Rainwise IP-100,2013-10-27 11:04:00,
2013-10-27 07:09:00,70.0,69.0,28.63,North,360,0.0,0.0,99,0.00,,,0.00,Rainwise IP-100,2013-10-27 11:09:00,
2013-10-27 07:14:00,70.0,69.0,28.63,North,360,0.0,0.0,99,0.00,,,0.00,Rainwise IP-100,2013-10-27 11:14:00,
2013-10-27 07:19:00,71.0,70.0,28.63,North,360,0.0,0.0,99,0.00,,,0.00,Rainwise IP-100,2013-10-27 11:19:00,
2013-10-27 07:24:00,71.0,70.0,28.63,North,360,0.0,2.0,99,0.00,,,0.00,Rainwise IP-100,2013-10-27 11:24:00,
2013-10-27 07:29:00,71.0,70.0,28.63,NW,315,0.0,2.0,99,0.00,,,0.00,Rainwise IP-100,2013-10-27 11:29:00,
2013-10-27 07:34:00,71.0,70.0,28.64,NW,315,2.0,2.0,99,0.00,,,0.00,Rainwise IP-100,2013-10-27 11:34:00,
2013-10-27 07:39:00,72.0,71.0,28.64,WNW,292,2.0,3.0,99,0.00,,,0.00,Rainwise IP-100,2013-10-27 11:39:00,
2013-10-27 07:44:00,73.0,72.0,28.63,West,270,0.0,5.0,99,0.00,,,0.00,Rainwise IP-100,2013-10-27 11:44:00,
2013-10-27 07:49:00,73.0,72.0,28.63,West,270,0.0,4.0,99,0.00,,,0.00,Rainwise IP-100,2013-10-27 11:49:00,
2013-10-27 07:55:00,74.0,72.0,28.61,West,270,0.0,2.0,95,0.00,,,0.00,Rainwise IP-100,2013-10-27 11:55:00,
2013-10-27 08:00:00,76.0,73.0,28.61,NE,45,5.0,7.0,93,0.00,,,0.00,Rainwise IP-100,2013-10-27 12:00:00,
2013-10-27 08:05:00,76.0,72.0,28.61,South,180,1.0,10.0,89,0.00,,,0.00,Rainwise IP-100,2013-10-27 12:05:00,
2013-10-27 08:10:00,77.0,73.0,28.61,NE,45,2.0,9.0,88,0.00,,,0.00,Rainwise IP-100,2013-10-27 12:10:00,
2013-10-27 08:15:00,77.0,72.0,28.61,North,360,3.0,10.0,84,0.00,,,0.00,Rainwise IP-100,2013-10-27 12:15:00,
2013-10-27 08:20:00,78.0,72.0,28.61,NE,45,3.0,10.0,83,0.00,,,0.00,Rainwise IP-100,2013-10-27 12:20:00,
2013-10-27 08:25:00,78.0,72.0,28.61,NE,45,5.0,10.0,84,0.00,,,0.00,Rainwise IP-100,2013-10-27 12:25:00,
2013-10-27 08:30:00,78.0,71.0,28.61,South,180,5.0,11.0,80,0.00,,,0.00,Rainwise IP-100,2013-10-27 12:30:00,
2013-10-27 08:32:00,78.0,71.0,28.61,NE,45,5.0,11.0,80,0.00,,,0.00,Rainwise IP-100,2013-10-27 12:32:00,
2013-10-27 08:37:00,78.0,72.0,28.61,East,90,1.0,11.0,81,0.00,,,0.00,Rainwise IP-100,2013-10-27 12:37:00,
2013-10-27 08:42:00,79.0,72.0,28.61,NE,45,4.0,11.0,80,0.00,,,0.00,Rainwise IP-100,2013-10-27 12:42:00,
2013-10-27 08:47:00,79.0,71.0,28.61,NNE,22,6.0,14.0,78,0.00,,,0.00,Rainwise IP-100,2013-10-27 12:47:00,
2013-10-27 08:53:00,79.0,71.0,28.61,East,90,2.0,13.0,77,0.00,,,0.00,Rainwise IP-100,2013-10-27 12:53:00,
2013-10-27 08:58:00,79.0,71.0,28.61,NE,45,3.0,15.0,78,0.00,,,0.00,Rainwise IP-100,2013-10-27 12:58:00,
2013-10-27 09:03:00,79.0,71.0,28.61,ESE,112,7.0,9.0,76,0.00,,,0.00,Rainwise IP-100,2013-10-27 13:03:00,
2013-10-27 09:08:00,79.0,71.0,28.61,SE,135,3.0,10.0,76,0.00,,,0.00,Rainwise IP-100,2013-10-27 13:08:00,
2013-10-27 09:13:00,79.0,71.0,28.61,NE,45,6.0,9.0,76,0.00,,,0.00,Rainwise IP-100,2013-10-27 13:13:00,
2013-10-27 09:18:00,79.0,71.0,28.61,ESE,112,5.0,9.0,76,0.00,,,0.00,Rainwise IP-100,2013-10-27 13:18:00,
2013-10-27 09:23:00,80.0,72.0,28.62,South,180,1.0,11.0,77,0.00,,,0.00,Rainwise IP-100,2013-10-27 13:23:00,
2013-10-27 09:28:00,79.0,71.0,28.62,East,90,10.0,13.0,77,0.00,,,0.00,Rainwise IP-100,2013-10-27 13:28:00,
2013-10-27 09:33:00,79.0,71.0,28.63,NNE,22,2.0,14.0,77,0.00,,,0.00,Rainwise IP-100,2013-10-27 13:33:00,
2013-10-27 09:38:00,80.0,71.0,28.63,NE,45,7.0,14.0,75,0.00,,,0.00,Rainwise IP-100,2013-10-27 13:38:00,
2013-10-27 09:43:00,81.0,72.0,28.62,South,180,1.0,12.0,74,0.00,,,0.00,Rainwise IP-100,2013-10-27 13:43:00,
2013-10-27 09:48:00,81.0,71.0,28.62,NE,45,10.0,12.0,71,0.00,,,0.00,Rainwise IP-100,2013-10-27 13:48:00,
2013-10-27 09:54:00,80.0,71.0,28.62,East,90,4.0,13.0,75,0.00,,,0.00,Rainwise IP-100,2013-10-27 13:54:00,
2013-10-27 09:59:00,80.0,71.0,28.62,South,180,2.0,12.0,75,0.00,,,0.00,Rainwise IP-100,2013-10-27 13:59:00,
2013-10-27 10:04:00,80.0,71.0,28.63,ESE,112,1.0,11.0,75,0.00,,,0.00,Rainwise IP-100,2013-10-27 14:04:00,
2013-10-27 10:09:00,80.0,71.0,28.63,NE,45,6.0,12.0,76,0.00,,,0.00,Rainwise IP-100,2013-10-27 14:09:00,
2013-10-27 10:14:00,80.0,71.0,28.63,East,90,6.0,10.0,76,0.00,,,0.00,Rainwise IP-100,2013-10-27 14:14:00,
2013-10-27 10:19:00,81.0,71.0,28.63,NE,45,5.0,11.0,73,0.00,,,0.00,Rainwise IP-100,2013-10-27 14:19:00,
2013-10-27 10:24:00,81.0,71.0,28.62,NE,45,7.0,12.0,73,0.00,,,0.00,Rainwise IP-100,2013-10-27 14:24:00,
2013-10-27 10:29:00,81.0,70.0,28.62,NNE,22,9.0,18.0,69,0.00,,,0.00,Rainwise IP-100,2013-10-27 14:29:00,
2013-10-27 10:34:00,80.0,69.0,28.63,East,90,9.0,17.0,70,0.00,,,0.00,Rainwise IP-100,2013-10-27 14:34:00,
2013-10-27 10:39:00,80.0,70.0,28.63,SSE,157,7.0,15.0,73,0.00,,,0.00,Rainwise IP-100,2013-10-27 14:39:00,
2013-10-27 10:44:00,80.0,70.0,28.63,East,90,8.0,12.0,73,0.00,,,0.00,Rainwise IP-100,2013-10-27 14:44:00,
2013-10-27 10:49:00,81.0,72.0,28.63,NE,45,8.0,12.0,74,0.00,,,0.00,Rainwise IP-100,2013-10-27 14:49:00,
2013-10-27 10:55:00,82.0,72.0,28.61,ESE,112,1.0,14.0,72,0.00,,,0.00,Rainwise IP-100,2013-10-27 14:55:00,
2013-10-27 11:00:00,81.0,72.0,28.61,SE,135,4.0,13.0,74,0.00,,,0.00,Rainwise IP-100,2013-10-27 15:00:00,
2013-10-27 11:05:00,82.0,72.0,28.61,NE,45,2.0,11.0,73,0.00,,,0.00,Rainwise IP-100,2013-10-27 15:05:00,
2013-10-27 11:10:00,81.0,71.0,28.61,SW,225,4.0,16.0,71,0.00,,,0.00,Rainwise IP-100,2013-10-27 15:10:00,
2013-10-27 11:15:00,82.0,71.0,28.61,SE,135,6.0,9.0,70,0.00,,,0.00,Rainwise IP-100,2013-10-27 15:15:00,
2013-10-27 11:20:00,83.0,70.0,28.61,South,180,2.0,11.0,66,0.00,,,0.00,Rainwise IP-100,2013-10-27 15:20:00,
2013-10-27 11:25:00,82.0,70.0,28.60,ESE,112,2.0,15.0,67,0.00,,,0.00,Rainwise IP-100,2013-10-27 15:25:00,
2013-10-27 11:30:00,81.0,70.0,28.60,NE,45,10.0,12.0,69,0.00,,,0.00,Rainwise IP-100,2013-10-27 15:30:00,
2013-10-27 11:35:00,81.0,70.0,28.61,East,90,6.0,14.0,70,0.00,,,0.00,Rainwise IP-100,2013-10-27 15:35:00,
2013-10-27 11:40:00,81.0,70.0,28.61,East,90,11.0,12.0,69,0.00,,,0.00,Rainwise IP-100,2013-10-27 15:40:00,
2013-10-27 11:45:00,82.0,70.0,28.60,NE,45,6.0,11.0,68,0.00,,,0.00,Rainwise IP-100,2013-10-27 15:45:00,
2013-10-27 11:50:00,83.0,70.0,28.60,South,180,8.0,12.0,66,0.00,,,0.00,Rainwise IP-100,2013-10-27 15:50:00,
2013-10-27 11:56:00,83.0,70.0,28.59,East,90,7.0,12.0,65,0.00,,,0.00,Rainwise IP-100,2013-10-27 15:56:00,
2013-10-27 12:01:00,84.0,71.0,28.58,SSE,157,6.0,11.0,65,0.00,,,0.00,Rainwise IP-100,2013-10-27 16:01:00,
2013-10-27 12:06:00,83.0,70.0,28.58,ESE,112,1.0,13.0,65,0.00,,,0.00,Rainwise IP-100,2013-10-27 16:06:00,
2013-10-27 12:11:00,83.0,71.0,28.58,SE,135,6.0,10.0,67,0.00,,,0.00,Rainwise IP-100,2013-10-27 16:11:00,
2013-10-27 12:16:00,83.0,71.0,28.58,SW,225,5.0,10.0,68,0.00,,,0.00,Rainwise IP-100,2013-10-27 16:16:00,
2013-10-27 12:21:00,83.0,72.0,28.57,NE,45,2.0,10.0,69,0.00,,,0.00,Rainwise IP-100,2013-10-27 16:21:00,
2013-10-27 12:26:00,82.0,70.0,28.57,East,90,7.0,10.0,68,0.00,,,0.00,Rainwise IP-100,2013-10-27 16:26:00,
2013-10-27 12:31:00,83.0,70.0,28.56,North,360,10.0,13.0,65,0.00,,,0.00,Rainwise IP-100,2013-10-27 16:31:00,
2013-10-27 12:36:00,83.0,69.0,28.56,ENE,67,2.0,14.0,64,0.00,,,0.00,Rainwise IP-100,2013-10-27 16:36:00,
2013-10-27 12:41:00,83.0,70.0,28.57,SSE,157,4.0,11.0,65,0.00,,,0.00,Rainwise IP-100,2013-10-27 16:41:00,
2013-10-27 12:46:00,83.0,71.0,28.57,SE,135,7.0,13.0,67,0.00,,,0.00,Rainwise IP-100,2013-10-27 16:46:00,
2013-10-27 12:51:00,83.0,69.0,28.56,SE,135,10.0,12.0,64,0.00,,,0.00,Rainwise IP-100,2013-10-27 16:51:00,
2013-10-27 12:57:00,83.0,70.0,28.56,East,90,5.0,13.0,66,0.00,,,0.00,Rainwise IP-100,2013-10-27 16:57:00,
2013-10-27 13:02:00,83.0,70.0,28.56,SE,135,7.0,12.0,66,0.00,,,0.00,Rainwise IP-100,2013-10-27 17:02:00,
2013-10-27 13:07:00,83.0,70.0,28.56,SE,135,7.0,13.0,65,0.00,,,0.00,Rainwise IP-100,2013-10-27 17:07:00,
2013-10-27 13:12:00,83.0,70.0,28.56,ENE,67,1.0,10.0,65,0.00,,,0.00,Rainwise IP-100,2013-10-27 17:12:00,
2013-10-27 13:17:00,83.0,68.0,28.56,East,90,6.0,9.0,61,0.00,,,0.00,Rainwise IP-100,2013-10-27 17:17:00,
2013-10-27 13:22:00,83.0,69.0,28.54,SE,135,5.0,8.0,62,0.00,,,0.00,Rainwise IP-100,2013-10-27 17:22:00,
2013-10-27 13:27:00,83.0,69.0,28.54,SSE,157,5.0,10.0,62,0.00,,,0.00,Rainwise IP-100,2013-10-27 17:27:00,
2013-10-27 13:32:00,84.0,69.0,28.54,NW,315,1.0,10.0,62,0.00,,,0.00,Rainwise IP-100,2013-10-27 17:32:00,
2013-10-27 13:37:00,84.0,69.0,28.54,East,90,6.0,12.0,61,0.00,,,0.00,Rainwise IP-100,2013-10-27 17:37:00,
2013-10-27 13:42:00,84.0,68.0,28.54,South,180,5.0,12.0,59,0.00,,,0.00,Rainwise IP-100,2013-10-27 17:42:00,
2013-10-27 13:47:00,83.0,68.0,28.54,ENE,67,13.0,14.0,61,0.00,,,0.00,Rainwise IP-100,2013-10-27 17:47:00,
2013-10-27 13:52:00,83.0,69.0,28.54,SW,225,4.0,15.0,63,0.00,,,0.00,Rainwise IP-100,2013-10-27 17:52:00,
2013-10-27 13:58:00,84.0,69.0,28.54,ESE,112,7.0,10.0,61,0.00,,,0.00,Rainwise IP-100,2013-10-27 17:58:00,
2013-10-27 14:04:00,85.0,71.0,28.53,East,90,9.0,9.0,63,0.00,,,0.00,Rainwise IP-100,2013-10-27 18:04:00,
2013-10-27 14:09:00,84.0,70.0,28.53,SSE,157,7.0,13.0,63,0.00,,,0.00,Rainwise IP-100,2013-10-27 18:09:00,
2013-10-27 14:14:00,84.0,71.0,28.54,SW,225,6.0,9.0,64,0.00,,,0.00,Rainwise IP-100,2013-10-27 18:14:00,
2013-10-27 14:19:00,83.0,69.0,28.54,NE,45,6.0,12.0,62,0.00,,,0.00,Rainwise IP-100,2013-10-27 18:19:00,
2013-10-27 14:24:00,83.0,69.0,28.54,East,90,10.0,13.0,63,0.00,,,0.00,Rainwise IP-100,2013-10-27 18:24:00,
2013-10-27 14:29:00,83.0,69.0,28.54,SSW,202,6.0,10.0,64,0.00,,,0.00,Rainwise IP-100,2013-10-27 18:29:00,
2013-10-27 14:34:00,84.0,69.0,28.54,SSW,202,5.0,11.0,62,0.00,,,0.00,Rainwise IP-100,2013-10-27 18:34:00,
2013-10-27 14:39:00,83.0,69.0,28.54,SE,135,5.0,10.0,63,0.00,,,0.00,Rainwise IP-100,2013-10-27 18:39:00,
2013-10-27 14:44:00,84.0,71.0,28.53,SSW,202,5.0,12.0,64,0.00,,,0.00,Rainwise IP-100,2013-10-27 18:44:00,
2013-10-27 14:49:00,84.0,70.0,28.53,East,90,4.0,12.0,63,0.00,,,0.00,Rainwise IP-100,2013-10-27 18:49:00,
2013-10-27 14:54:00,83.0,69.0,28.52,East,90,9.0,12.0,63,0.00,,,0.00,Rainwise IP-100,2013-10-27 18:54:00,
2013-10-27 15:00:00,84.0,70.0,28.52,SE,135,4.0,10.0,63,0.00,,,0.00,Rainwise IP-100,2013-10-27 19:00:00,
2013-10-27 15:05:00,83.0,69.0,28.52,East,90,5.0,9.0,63,0.00,,,0.00,Rainwise IP-100,2013-10-27 19:05:00,
2013-10-27 15:10:00,84.0,69.0,28.52,NE,45,0.0,8.0,62,0.00,,,0.00,Rainwise IP-100,2013-10-27 19:10:00,
2013-10-27 15:15:00,84.0,68.0,28.52,NE,45,6.0,10.0,59,0.00,,,0.00,Rainwise IP-100,2013-10-27 19:15:00,
2013-10-27 15:20:00,82.0,68.0,28.52,NE,45,4.0,12.0,63,0.00,,,0.00,Rainwise IP-100,2013-10-27 19:20:00,
2013-10-27 15:25:00,81.0,69.0,28.54,NE,45,5.0,13.0,66,0.00,,,0.00,Rainwise IP-100,2013-10-27 19:25:00,
2013-10-27 15:30:00,81.0,69.0,28.54,SE,135,5.0,10.0,66,0.00,,,0.00,Rainwise IP-100,2013-10-27 19:30:00,
2013-10-27 15:35:00,81.0,66.0,28.54,SE,135,7.0,10.0,62,0.00,,,0.00,Rainwise IP-100,2013-10-27 19:35:00,
2013-10-27 15:40:00,81.0,67.0,28.54,East,90,4.0,10.0,63,0.00,,,0.00,Rainwise IP-100,2013-10-27 19:40:00,
2013-10-27 15:45:00,81.0,67.0,28.54,East,90,6.0,10.0,63,0.00,,,0.00,Rainwise IP-100,2013-10-27 19:45:00,
2013-10-27 15:50:00,82.0,68.0,28.54,NE,45,8.0,10.0,63,0.00,,,0.00,Rainwise IP-100,2013-10-27 19:50:00,
2013-10-27 15:55:00,82.0,68.0,28.53,North,360,2.0,9.0,64,0.00,,,0.00,Rainwise IP-100,2013-10-27 19:55:00,
2013-10-27 16:01:00,83.0,68.0,28.53,ENE,67,2.0,8.0,61,0.00,,,0.00,Rainwise IP-100,2013-10-27 20:01:00,
2013-10-27 16:06:00,83.0,69.0,28.53,NE,45,6.0,16.0,62,0.00,,,0.00,Rainwise IP-100,2013-10-27 20:06:00,
2013-10-27 16:11:00,82.0,70.0,28.53,North,360,4.0,12.0,67,0.00,,,0.00,Rainwise IP-100,2013-10-27 20:11:00,
2013-10-27 16:16:00,82.0,71.0,28.53,NE,45,6.0,12.0,69,0.00,,,0.00,Rainwise IP-100,2013-10-27 20:16:00,
2013-10-27 16:21:00,81.0,71.0,28.54,East,90,6.0,12.0,71,0.00,,,0.00,Rainwise IP-100,2013-10-27 20:21:00,
2013-10-27 16:26:00,81.0,70.0,28.54,NNW,337,1.0,9.0,70,0.00,,,0.00,Rainwise IP-100,2013-10-27 20:26:00,
2013-10-27 16:31:00,81.0,70.0,28.54,SE,135,2.0,10.0,70,0.00,,,0.00,Rainwise IP-100,2013-10-27 20:31:00,
2013-10-27 16:36:00,81.0,70.0,28.54,East,90,3.0,9.0,69,0.00,,,0.00,Rainwise IP-100,2013-10-27 20:36:00,
2013-10-27 16:41:00,80.0,69.0,28.54,NE,45,10.0,12.0,69,0.00,,,0.00,Rainwise IP-100,2013-10-27 20:41:00,
2013-10-27 16:46:00,80.0,69.0,28.54,North,360,5.0,13.0,69,0.00,,,0.00,Rainwise IP-100,2013-10-27 20:46:00,
2013-10-27 16:51:00,80.0,69.0,28.55,NE,45,4.0,14.0,70,0.00,,,0.00,Rainwise IP-100,2013-10-27 20:51:00,
2013-10-27 16:56:00,79.0,69.0,28.55,NE,45,4.0,11.0,71,0.00,,,0.00,Rainwise IP-100,2013-10-27 20:56:00,
2013-10-27 17:02:00,79.0,69.0,28.55,NE,45,6.0,12.0,72,0.00,,,0.00,Rainwise IP-100,2013-10-27 21:02:00,
2013-10-27 17:07:00,79.0,69.0,28.55,NE,45,3.0,10.0,72,0.00,,,0.00,Rainwise IP-100,2013-10-27 21:07:00,
2013-10-27 17:12:00,79.0,69.0,28.55,NE,45,6.0,10.0,72,0.00,,,0.00,Rainwise IP-100,2013-10-27 21:12:00,
2013-10-27 17:17:00,78.0,69.0,28.55,East,90,5.0,10.0,73,0.00,,,0.00,Rainwise IP-100,2013-10-27 21:17:00,
2013-10-27 17:22:00,78.0,69.0,28.56,NE,45,6.0,9.0,74,0.00,,,0.00,Rainwise IP-100,2013-10-27 21:22:00,
2013-10-27 17:27:00,78.0,69.0,28.56,NE,45,5.0,9.0,74,0.00,,,0.00,Rainwise IP-100,2013-10-27 21:27:00,
2013-10-27 17:32:00,78.0,69.0,28.56,NE,45,6.0,7.0,75,0.00,,,0.00,Rainwise IP-100,2013-10-27 21:32:00,
2013-10-27 17:37:00,78.0,70.0,28.56,ESE,112,1.0,9.0,76,0.00,,,0.00,Rainwise IP-100,2013-10-27 21:37:00,
2013-10-27 17:42:00,78.0,70.0,28.56,NE,45,1.0,11.0,77,0.00,,,0.00,Rainwise IP-100,2013-10-27 21:42:00,
2013-10-27 17:47:00,77.0,70.0,28.56,East,90,7.0,7.0,79,0.00,,,0.00,Rainwise IP-100,2013-10-27 21:47:00,
2013-10-27 17:52:00,77.0,71.0,28.57,East,90,2.0,7.0,81,0.00,,,0.00,Rainwise IP-100,2013-10-27 21:52:00,
2013-10-27 17:57:00,77.0,71.0,28.57,NE,45,5.0,8.0,82,0.00,,,0.00,Rainwise IP-100,2013-10-27 21:57:00,
2013-10-27 18:03:00,77.0,71.0,28.57,NE,45,3.0,8.0,83,0.00,,,0.00,Rainwise IP-100,2013-10-27 22:03:00,
2013-10-27 18:08:00,76.0,71.0,28.57,East,90,2.0,5.0,84,0.00,,,0.00,Rainwise IP-100,2013-10-27 22:08:00,
2013-10-27 18:13:00,76.0,71.0,28.59,NE,45,3.0,6.0,84,0.00,,,0.00,Rainwise IP-100,2013-10-27 22:13:00,
2013-10-27 18:18:00,76.0,71.0,28.59,NE,45,3.0,7.0,86,0.00,,,0.00,Rainwise IP-100,2013-10-27 22:18:00,
2013-10-27 18:23:00,76.0,71.0,28.59,NE,45,3.0,6.0,87,0.00,,,0.00,Rainwise IP-100,2013-10-27 22:23:00,
2013-10-27 18:28:00,76.0,71.0,28.59,NE,45,1.0,7.0,87,0.00,,,0.00,Rainwise IP-100,2013-10-27 22:28:00,
2013-10-27 18:33:00,75.0,71.0,28.59,NE,45,4.0,7.0,87,0.00,,,0.00,Rainwise IP-100,2013-10-27 22:33:00,
2013-10-27 18:38:00,75.0,71.0,28.59,NNE,22,3.0,7.0,87,0.00,,,0.00,Rainwise IP-100,2013-10-27 22:38:00,
2013-10-27 18:43:00,75.0,71.0,28.60,NE,45,2.0,6.0,87,0.00,,,0.00,Rainwise IP-100,2013-10-27 22:43:00,
2013-10-27 18:48:00,75.0,71.0,28.60,NE,45,5.0,5.0,88,0.00,,,0.00,Rainwise IP-100,2013-10-27 22:48:00,
2013-10-27 18:53:00,75.0,71.0,28.60,NE,45,6.0,6.0,87,0.00,,,0.00,Rainwise IP-100,2013-10-27 22:53:00,
2013-10-27 18:58:00,75.0,71.0,28.60,NE,45,6.0,6.0,87,0.00,,,0.00,Rainwise IP-100,2013-10-27 22:58:00,
2013-10-27 19:04:00,75.0,71.0,28.61,NE,45,1.0,6.0,88,0.00,,,0.00,Rainwise IP-100,2013-10-27 23:04:00,
2013-10-27 19:09:00,75.0,71.0,28.61,NE,45,0.0,5.0,88,0.00,,,0.00,Rainwise IP-100,2013-10-27 23:09:00,
2013-10-27 19:14:00,75.0,71.0,28.61,NE,45,1.0,6.0,89,0.00,,,0.00,Rainwise IP-100,2013-10-27 23:14:00,
2013-10-27 19:19:00,75.0,71.0,28.61,NE,45,2.0,7.0,89,0.00,,,0.00,Rainwise IP-100,2013-10-27 23:19:00,
2013-10-27 19:24:00,75.0,71.0,28.61,NE,45,2.0,5.0,89,0.00,,,0.00,Rainwise IP-100,2013-10-27 23:24:00,
2013-10-27 19:29:00,74.0,71.0,28.61,NE,45,1.0,5.0,90,0.00,,,0.00,Rainwise IP-100,2013-10-27 23:29:00,
2013-10-27 19:34:00,74.0,71.0,28.62,NE,45,2.0,5.0,91,0.00,,,0.00,Rainwise IP-100,2013-10-27 23:34:00,
2013-10-27 19:39:00,74.0,71.0,28.62,NE,45,5.0,5.0,92,0.00,,,0.00,Rainwise IP-100,2013-10-27 23:39:00,
2013-10-27 19:44:00,74.0,71.0,28.62,NE,45,3.0,7.0,92,0.00,,,0.00,Rainwise IP-100,2013-10-27 23:44:00,
2013-10-27 19:49:00,74.0,71.0,28.62,NE,45,5.0,6.0,92,0.00,,,0.00,Rainwise IP-100,2013-10-27 23:49:00,
2013-10-27 19:54:00,74.0,72.0,28.62,NE,45,2.0,6.0,93,0.00,,,0.00,Rainwise IP-100,2013-10-27 23:54:00,
2013-10-27 19:59:00,74.0,72.0,28.62,East,90,1.0,5.0,93,0.00,,,0.00,Rainwise IP-100,2013-10-27 23:59:00,
2013-10-27 20:05:00,74.0,72.0,28.63,NE,45,1.0,6.0,94,0.00,,,0.00,Rainwise IP-100,2013-10-28 00:05:00,
2013-10-27 20:10:00,74.0,72.0,28.63,NE,45,0.0,5.0,94,0.00,,,0.00,Rainwise IP-100,2013-10-28 00:10:00,
2013-10-27 20:15:00,73.0,71.0,28.63,NE,45,2.0,4.0,94,0.00,,,0.00,Rainwise IP-100,2013-10-28 00:15:00,
2013-10-27 20:20:00,73.0,71.0,28.63,NE,45,0.0,4.0,95,0.00,,,0.00,Rainwise IP-100,2013-10-28 00:20:00,
2013-10-27 20:25:00,73.0,71.0,28.64,NE,45,1.0,4.0,95,0.00,,,0.00,Rainwise IP-100,2013-10-28 00:25:00,
2013-10-27 20:30:00,73.0,71.0,28.64,NE,45,0.0,3.0,95,0.00,,,0.00,Rainwise IP-100,2013-10-28 00:30:00,
2013-10-27 20:35:00,73.0,71.0,28.64,East,90,1.0,5.0,95,0.00,,,0.00,Rainwise IP-100,2013-10-28 00:35:00,
2013-10-27 20:40:00,73.0,71.0,28.64,NE,45,1.0,4.0,95,0.00,,,0.00,Rainwise IP-100,2013-10-28 00:40:00,
2013-10-27 20:45:00,73.0,72.0,28.65,NE,45,0.0,1.0,96,0.00,,,0.00,Rainwise IP-100,2013-10-28 00:45:00,
2013-10-27 20:50:00,73.0,72.0,28.65,NE,45,0.0,0.0,96,0.00,,,0.00,Rainwise IP-100,2013-10-28 00:50:00,
2013-10-27 20:55:00,73.0,72.0,28.65,NE,45,0.0,0.0,96,0.00,,,0.00,Rainwise IP-100,2013-10-28 00:55:00,
2013-10-27 21:00:00,72.0,71.0,28.65,NE,45,0.0,1.0,96,0.00,,,0.00,Rainwise IP-100,2013-10-28 01:00:00,
2013-10-27 21:06:00,72.0,71.0,28.65,NE,45,0.0,0.0,96,0.00,,,0.00,Rainwise IP-100,2013-10-28 01:06:00,
2013-10-27 21:11:00,72.0,71.0,28.65,NE,45,0.0,0.0,96,0.00,,,0.00,Rainwise IP-100,2013-10-28 01:11:00,
2013-10-27 21:16:00,72.0,71.0,28.65,NE,45,0.0,0.0,97,0.00,,,0.00,Rainwise IP-100,2013-10-28 01:16:00,
2013-10-27 21:21:00,72.0,71.0,28.65,NE,45,0.0,1.0,97,0.00,,,0.00,Rainwise IP-100,2013-10-28 01:21:00,
2013-10-27 21:26:00,72.0,71.0,28.66,NE,45,0.0,2.0,97,0.00,,,0.00,Rainwise IP-100,2013-10-28 01:26:00,
2013-10-27 21:31:00,72.0,71.0,28.66,NE,45,0.0,0.0,97,0.00,,,0.00,Rainwise IP-100,2013-10-28 01:31:00,
2013-10-27 21:36:00,72.0,71.0,28.66,NE,45,0.0,0.0,98,0.00,,,0.00,Rainwise IP-100,2013-10-28 01:36:00,
2013-10-27 21:41:00,72.0,71.0,28.66,NE,45,0.0,0.0,98,0.00,,,0.00,Rainwise IP-100,2013-10-28 01:41:00,
2013-10-27 21:46:00,72.0,71.0,28.66,NE,45,0.0,0.0,98,0.00,,,0.00,Rainwise IP-100,2013-10-28 01:46:00,
2013-10-27 21:51:00,72.0,71.0,28.67,NE,45,0.0,0.0,98,0.00,,,0.00,Rainwise IP-100,2013-10-28 01:51:00,
2013-10-27 21:56:00,72.0,71.0,28.67,NE,45,0.0,0.0,98,0.00,,,0.00,Rainwise IP-100,2013-10-28 01:56:00,
2013-10-27 22:01:00,72.0,71.0,28.67,NE,45,0.0,0.0,98,0.00,,,0.00,Rainwise IP-100,2013-10-28 02:01:00,
2013-10-27 22:07:00,72.0,71.0,28.67,NE,45,0.0,1.0,98,0.00,,,0.00,Rainwise IP-100,2013-10-28 02:07:00,
2013-10-27 22:12:00,72.0,71.0,28.67,NE,45,0.0,0.0,99,0.00,,,0.00,Rainwise IP-100,2013-10-28 02:12:00,
2013-10-27 22:17:00,72.0,71.0,28.67,NE,45,0.0,0.0,99,0.00,,,0.00,Rainwise IP-100,2013-10-28 02:17:00,
2013-10-27 22:22:00,72.0,71.0,28.67,NE,45,0.0,0.0,99,0.00,,,0.00,Rainwise IP-100,2013-10-28 02:22:00,
2013-10-27 22:27:00,72.0,71.0,28.67,NE,45,0.0,0.0,99,0.00,,,0.00,Rainwise IP-100,2013-10-28 02:27:00,
2013-10-27 22:32:00,72.0,71.0,28.67,NE,45,0.0,0.0,99,0.00,,,0.00,Rainwise IP-100,2013-10-28 02:32:00,
2013-10-27 22:37:00,71.0,70.0,28.67,NE,45,0.0,1.0,99,0.00,,,0.00,Rainwise IP-100,2013-10-28 02:37:00,
2013-10-27 22:42:00,71.0,70.0,28.67,NE,45,0.0,0.0,99,0.00,,,0.00,Rainwise IP-100,2013-10-28 02:42:00,
2013-10-27 22:47:00,71.0,70.0,28.67,North,360,0.0,2.0,99,0.00,,,0.00,Rainwise IP-100,2013-10-28 02:47:00,
2013-10-27 22:52:00,71.0,70.0,28.68,North,360,0.0,1.0,99,0.00,,,0.00,Rainwise IP-100,2013-10-28 02:52:00,
2013-10-27 22:57:00,71.0,70.0,28.68,North,360,0.0,3.0,99,0.00,,,0.00,Rainwise IP-100,2013-10-28 02:57:00,
2013-10-27 23:02:00,71.0,70.0,28.69,North,360,0.0,0.0,99,0.00,,,0.00,Rainwise IP-100,2013-10-28 03:02:00,
2013-10-27 23:08:00,71.0,70.0,28.69,North,360,0.0,1.0,99,0.00,,,0.00,Rainwise IP-100,2013-10-28 03:08:00,
2013-10-27 23:13:00,71.0,70.0,28.68,North,360,0.0,1.0,99,0.00,,,0.00,Rainwise IP-100,2013-10-28 03:13:00,
2013-10-27 23:18:00,71.0,70.0,28.68,North,360,0.0,2.0,99,0.00,,,0.00,Rainwise IP-100,2013-10-28 03:18:00,
2013-10-27 23:23:00,71.0,70.0,28.68,North,360,0.0,1.0,99,0.00,,,0.00,Rainwise IP-100,2013-10-28 03:23:00,
2013-10-27 23:28:00,71.0,70.0,28.68,North,360,0.0,0.0,99,0.00,,,0.00,Rainwise IP-100,2013-10-28 03:28:00,
2013-10-27 23:33:00,71.0,70.0,28.68,North,360,0.0,0.0,99,0.00,,,0.00,Rainwise IP-100,2013-10-28 03:33:00,
2013-10-27 23:38:00,71.0,70.0,28.68,North,360,0.0,0.0,99,0.00,,,0.00,Rainwise IP-100,2013-10-28 03:38:00,
2013-10-27 23:43:00,71.0,70.0,28.68,North,360,0.0,2.0,99,0.00,,,0.00,Rainwise IP-100,2013-10-28 03:43:00,
2013-10-27 23:48:00,70.0,69.0,28.68,North,360,0.0,1.0,99,0.00,,,0.00,Rainwise IP-100,2013-10-28 03:48:00,
2013-10-27 23:53:00,70.0,69.0,28.68,North,360,0.0,3.0,99,0.00,,,0.00,Rainwise IP-100,2013-10-28 03:53:00,
2013-10-27 23:58:00,70.0,69.0,28.68,North,360,0.0,0.0,99,0.00,,,0.00,Rainwise IP-100,2013-10-28 03:58:00,